Weather History for Jonesboro, AR

Change the Weather History Date:

Thursday, June 13, 2013

  Actual Average Record
Temperature  
Mean Temperature 82 °F 78 °F  
Max Temperature 94 °F 89 °F 101 °F (1914)
Min Temperature 69 °F 66 °F 46 °F (1903)
Degree Days  
Heating Degree Days 0 0  
Month to date heating degree days 0 0  
Since 1 June heating degree days 0 0  
Since 1 July heating degree days 3556 3652  
Cooling Degree Days 17 12  
Month to date cooling degree days 155 141  
Year to date cooling degree days 385 354  
Since 1 June cooling degree days 155 141  
Growing Degree Days 33 (Base 50)    
Moisture  
Dew Point 68 °F    
Average Humidity 59    
Maximum Humidity 79    
Minimum Humidity 38    
Precipitation  
Precipitation 0.00 in 0.11 in 2.37 in (1942)
Month to date precipitation 1.64 1.32  
Year to date precipitation 27.98 22.60  
Snow  
Snow 0.00 in 0.00 in - ()
Month to date snowfall 0.0 0.0  
Since 1 June snowfall 0.0 0.0  
Since 1 July snowfall 11.0 4.8  
Snow Depth 0.00 in    
Sea Level Pressure  
Sea Level Pressure 29.92 in    
Wind  
Wind Speed 9 mph (NW)    
Max Wind Speed 17 mph    
Max Gust Speed 25 mph    
Visibility 10 miles    
Events      
T = Trace of Precipitation, MM = Missing Value Source: NWS Daily Summary

Daily Weather History Graph

Daily Weather History Graph

Search for Another Location

Airport:

Trip Planner

Search our weather history database for the weather conditions in past years. The results will help you decide how hot, cold, wet, or windy it might be!

Date:

Astronomy

Jun. 13, 2013 Rise Set
Actual Time 5:45 AM CDT 8:19 PM CDT
Civil Twilight 5:15 AM CDT 8:49 PM CDT
Nautical Twilight 4:38 AM CDT 9:27 PM CDT
Astronomical Twilight 3:56 AM CDT 10:08 PM CDT
Moon 10:15 AM CDT (6/13) 11:35 PM CDT (6/13)
Length of Visible Light 15h 34m
Length of Day
14h 34m
Waxing Crescent, 22% of the Moon is Illuminated
Jun 13
Waxing Crescent
Jun 16
First Quarter
Jun 23
Full
Jun 29
Last Quarter
Jul 8
New

Hourly Weather History & Observations

Time (CDT) Temp. Heat Index Dew Point Humidity Pressure Visibility Wind Dir Wind Speed Gust Speed Precip Events Conditions
12:53 AM 81.0 °F 84.9 °F 71.1 °F 72% 29.89 in 10.0 mi SW 8.1 mph - N/A   Clear
1:53 AM 81.0 °F 85.2 °F 72.0 °F 74% 29.89 in 10.0 mi SW 11.5 mph - N/A   Clear
2:53 AM 81.0 °F 85.2 °F 72.0 °F 74% 29.89 in 10.0 mi WSW 9.2 mph - N/A   Clear
3:53 AM 80.1 °F 83.8 °F 72.0 °F 76% 29.88 in 10.0 mi WSW 9.2 mph - N/A   Scattered Clouds
4:53 AM 79.0 °F - 72.0 °F 79% 29.88 in 10.0 mi WSW 9.2 mph - N/A   Clear
5:53 AM 79.0 °F - 72.0 °F 79% 29.90 in 10.0 mi WSW 8.1 mph - N/A   Clear
6:53 AM 81.0 °F 85.2 °F 72.0 °F 74% 29.91 in 10.0 mi West 10.4 mph - N/A   Clear
7:53 AM 84.0 °F 89.6 °F 72.0 °F 67% 29.91 in 10.0 mi West 12.7 mph 20.7 mph N/A   Clear
8:53 AM 88.0 °F 94.7 °F 72.0 °F 59% 29.91 in 10.0 mi West 11.5 mph 20.7 mph N/A   Clear
9:53 AM 90.0 °F 96.9 °F 72.0 °F 55% 29.91 in 10.0 mi WNW 12.7 mph 18.4 mph N/A   Clear
10:53 AM 91.0 °F 98.2 °F 72.0 °F 53% 29.92 in 10.0 mi NW 10.4 mph 17.3 mph N/A   Mostly Cloudy
11:53 AM 93.0 °F 96.4 °F 66.9 °F 42% 29.92 in 10.0 mi WNW 13.8 mph 20.7 mph N/A   Clear
12:53 PM 91.9 °F 92.9 °F 63.0 °F 38% 29.92 in 10.0 mi NNW 12.7 mph 19.6 mph N/A   Clear
1:53 PM 91.9 °F 94.1 °F 64.9 °F 41% 29.93 in 10.0 mi North 11.5 mph 18.4 mph N/A   Clear
2:53 PM 91.9 °F 94.1 °F 64.9 °F 41% 29.92 in 10.0 mi NNE 12.7 mph 17.3 mph N/A   Clear
3:53 PM 93.0 °F 95.9 °F 66.0 °F 41% 29.91 in 10.0 mi NNE 5.8 mph 19.6 mph N/A   Clear
4:53 PM 91.0 °F 93.8 °F 66.0 °F 44% 29.91 in 10.0 mi NE 11.5 mph 18.4 mph N/A   Scattered Clouds
5:53 PM 90.0 °F 92.4 °F 66.0 °F 45% 29.91 in 10.0 mi NE 10.4 mph - N/A   Partly Cloudy
6:53 PM 87.1 °F 89.2 °F 66.0 °F 49% 29.91 in 10.0 mi NNE 5.8 mph - N/A   Clear
7:53 PM 82.0 °F 83.8 °F 64.9 °F 56% 29.93 in 10.0 mi NE 8.1 mph - N/A   Clear
8:53 PM 78.1 °F - 64.0 °F 62% 29.94 in 10.0 mi NE 6.9 mph - N/A   Clear
9:53 PM 75.0 °F - 66.0 °F 73% 29.96 in 10.0 mi Calm Calm - N/A   Partly Cloudy
10:53 PM 73.0 °F - 66.0 °F 79% 29.96 in 10.0 mi Calm Calm - N/A   Clear
11:53 PM 71.1 °F - 64.9 °F 81% 29.95 in 10.0 mi Calm Calm - N/A   Clear